CFG61L EDLP-LPMA

Flight info

Callsign CFG61L
Flight time N/A
Altitude 37000
Route DOMEG4X DOMEG N853 IRBUP Z717 MAS UM617 CIV M617 CMB R50 OKRUZ H20 LGL UT190 GODIX UN872 DIDAK A5 LOTEE P600 STG N728 DEMOS R1 VERAM Q205 TELMU UN741 PECKY Q146 EPAKA
Aircraft A321/M-SDE3FGHIRWY/LB1

Departure

Time 2026-05-07 16:06
Airport Paderborn Lippstadt Airport (EDLP)

Arrival

Time N/A
Airport Cristiano Ronaldo International Airport (LPMA)
Time Latitude Longitude Altitude Speed Heading
2026-05-07 15:24 51.61149 8.62001 730 ft 0 kts 147°
2026-05-07 15:57 51.61167 8.61982 730 ft 2 kts 147°
2026-05-07 15:57 51.61187 8.61966 729 ft 4 kts 187°
2026-05-07 15:57 51.61206 8.61984 729 ft 4 kts 234°
2026-05-07 15:58 51.61212 8.61996 730 ft 0 kts 237°
2026-05-07 16:00 51.61199 8.61964 729 ft 6 kts 237°
2026-05-07 16:00 51.61179 8.61916 731 ft 4 kts 237°
2026-05-07 16:01 51.61166 8.61884 731 ft 3 kts 237°
2026-05-07 16:01 51.61156 8.61859 730 ft 2 kts 237°
2026-05-07 16:01 51.61146 8.61834 731 ft 5 kts 237°
2026-05-07 16:01 51.61114 8.61757 731 ft 11 kts 237°
2026-05-07 16:02 51.61063 8.61632 731 ft 14 kts 237°
2026-05-07 16:02 51.61012 8.61505 731 ft 13 kts 237°
2026-05-07 16:02 51.60968 8.61395 731 ft 11 kts 240°
2026-05-07 16:02 51.60965 8.61280 728 ft 12 kts 281°
2026-05-07 16:03 51.60981 8.61131 720 ft 16 kts 273°
2026-05-07 16:03 51.60944 8.60978 718 ft 15 kts 237°
2026-05-07 16:03 51.60889 8.60844 717 ft 15 kts 237°
2026-05-07 16:03 51.60834 8.60708 714 ft 15 kts 237°
2026-05-07 16:04 51.60778 8.60571 716 ft 14 kts 237°
2026-05-07 16:04 51.60756 8.60440 716 ft 12 kts 283°
2026-05-07 16:04 51.60807 8.60351 717 ft 12 kts 322°
2026-05-07 16:04 51.60859 8.60294 717 ft 7 kts 11°
2026-05-07 16:05 51.60878 8.60333 718 ft 0 kts 56°
2026-05-07 16:05 51.60882 8.60343 717 ft 9 kts 56°
2026-05-07 16:05 51.61079 8.60819 717 ft 92 kts 56°
2026-05-07 16:06 51.61559 8.61989 700 ft 156 kts 57°
2026-05-07 16:06 51.62227 8.63573 1180 ft 169 kts 54°
2026-05-07 16:06 51.62884 8.65042 2268 ft 157 kts 54°
2026-05-07 16:06 51.63538 8.66518 2563 ft 172 kts 52°
2026-05-07 16:07 51.64285 8.68159 2709 ft 188 kts 53°
2026-05-07 16:07 51.65122 8.69916 2914 ft 202 kts 51°
2026-05-07 16:07 51.66142 8.71558 3022 ft 222 kts 32°
2026-05-07 16:07 51.67696 8.72191 3060 ft 251 kts 356°
2026-05-07 16:08 51.69417 8.71174 3177 ft 279 kts 326°
2026-05-07 16:08 51.70907 8.69131 3883 ft 283 kts 315°
2026-05-07 16:08 51.72076 8.66577 4659 ft 284 kts 296°
2026-05-07 16:08 51.72702 8.63649 5781 ft 272 kts 285°
2026-05-07 16:09 51.73084 8.60672 6594 ft 272 kts 281°
2026-05-07 16:09 51.73399 8.57652 7257 ft 274 kts 281°
2026-05-07 16:09 51.73725 8.54617 7897 ft 276 kts 281°
2026-05-07 16:09 51.74089 8.51566 8537 ft 278 kts 282°
2026-05-07 16:10 51.74352 8.49540 8959 ft 279 kts 282°
2026-05-07 16:10 51.74772 8.46465 9583 ft 282 kts 283°
2026-05-07 16:10 51.75213 8.43363 10175 ft 285 kts 283°
2026-05-07 16:10 51.75679 8.40165 10389 ft 302 kts 283°
2026-05-07 16:11 51.76181 8.36760 10523 ft 321 kts 283°
2026-05-07 16:11 51.76575 8.33110 10662 ft 339 kts 274°
2026-05-07 16:11 51.76519 8.29267 11052 ft 347 kts 263°
2026-05-07 16:11 51.76214 8.25387 11578 ft 350 kts 263°
2026-05-07 16:12 51.75910 8.21472 12183 ft 353 kts 263°
2026-05-07 16:12 51.75607 8.17529 12759 ft 355 kts 263°
2026-05-07 16:12 51.75305 8.13564 13340 ft 358 kts 263°
2026-05-07 16:12 51.74999 8.09568 13912 ft 360 kts 263°
2026-05-07 16:13 51.74672 8.05551 14428 ft 362 kts 259°
2026-05-07 16:13 51.73847 8.01720 14905 ft 365 kts 241°
2026-05-07 16:13 51.72463 7.98261 15396 ft 368 kts 236°
2026-05-07 16:13 51.71023 7.94831 15895 ft 370 kts 236°
2026-05-07 16:14 51.69568 7.91399 16303 ft 371 kts 236°
2026-05-07 16:14 51.68103 7.87957 16789 ft 373 kts 236°
2026-05-07 16:14 51.66630 7.84497 17257 ft 375 kts 236°
2026-05-07 16:14 51.65175 7.81068 17730 ft 377 kts 236°
2026-05-07 16:15 51.63697 7.77576 18226 ft 379 kts 236°
2026-05-07 16:15 51.62208 7.74058 18669 ft 381 kts 236°
2026-05-07 16:15 51.60713 7.70533 19104 ft 382 kts 236°
2026-05-07 16:15 51.59213 7.67007 19533 ft 383 kts 236°
2026-05-07 16:16 51.57704 7.63470 20002 ft 383 kts 236°
2026-05-07 16:16 51.56194 7.59939 20442 ft 384 kts 236°
2026-05-07 16:16 51.54681 7.56401 20840 ft 386 kts 236°
2026-05-07 16:16 51.53156 7.52838 21241 ft 388 kts 236°
2026-05-07 16:17 51.51626 7.49262 21628 ft 390 kts 236°
2026-05-07 16:17 51.50086 7.45663 22032 ft 392 kts 236°
2026-05-07 16:17 51.48543 7.42058 22432 ft 393 kts 236°
2026-05-07 16:17 51.46987 7.38436 22839 ft 395 kts 236°
2026-05-07 16:18 51.45424 7.34814 23250 ft 396 kts 235°
2026-05-07 16:18 51.43857 7.31189 23661 ft 396 kts 236°
2026-05-07 16:18 51.42284 7.27555 24015 ft 397 kts 235°
2026-05-07 16:18 51.40678 7.23957 24366 ft 397 kts 234°
2026-05-07 16:19 51.39205 7.20767 24696 ft 397 kts 233°
2026-05-07 16:19 51.37641 7.17455 25027 ft 397 kts 233°
2026-05-07 16:19 51.35971 7.13943 25391 ft 397 kts 233°
2026-05-07 16:19 51.34305 7.10427 25766 ft 396 kts 233°
2026-05-07 16:20 51.32644 7.06906 26146 ft 396 kts 233°
2026-05-07 16:20 51.30994 7.03395 26525 ft 395 kts 233°
2026-05-07 16:20 51.29348 6.99877 26911 ft 394 kts 233°
2026-05-07 16:20 51.27734 6.96427 27304 ft 393 kts 233°
2026-05-07 16:21 51.26102 6.92937 27705 ft 391 kts 234°
2026-05-07 16:21 51.24477 6.89466 28113 ft 389 kts 233°
2026-05-07 16:21 51.22858 6.86021 28521 ft 387 kts 233°
2026-05-07 16:21 51.21242 6.82601 28936 ft 385 kts 233°
2026-05-07 16:22 51.19666 6.79279 29355 ft 382 kts 233°
2026-05-07 16:22 51.18064 6.75912 29782 ft 379 kts 233°
2026-05-07 16:22 51.16481 6.72579 30199 ft 375 kts 233°
2026-05-07 16:22 51.14915 6.69278 30560 ft 372 kts 233°
2026-05-07 16:23 51.13354 6.65985 30689 ft 375 kts 233°
2026-05-07 16:23 51.11774 6.62656 30819 ft 378 kts 233°
2026-05-07 16:23 51.10247 6.59227 30947 ft 380 kts 239°
2026-05-07 16:23 51.09001 6.55502 31070 ft 383 kts 247°
2026-05-07 16:24 51.08080 6.51524 31199 ft 385 kts 254°
2026-05-07 16:24 51.07447 6.47368 31328 ft 388 kts 257°
2026-05-07 16:24 51.06839 6.43173 31456 ft 391 kts 257°
2026-05-07 16:24 51.06219 6.38956 31584 ft 394 kts 256°
2026-05-07 16:25 51.05590 6.34706 31711 ft 396 kts 256°
2026-05-07 16:25 51.04953 6.30432 31846 ft 399 kts 256°
2026-05-07 16:25 51.04310 6.26130 31991 ft 402 kts 256°
2026-05-07 16:25 51.03662 6.21796 32126 ft 404 kts 256°
2026-05-07 16:26 51.03010 6.17442 32268 ft 407 kts 256°
2026-05-07 16:26 51.02355 6.13063 32406 ft 409 kts 256°
2026-05-07 16:26 51.01492 6.08752 32545 ft 411 kts 247°
2026-05-07 16:26 51.00242 6.04666 32674 ft 413 kts 241°
2026-05-07 16:27 50.98834 6.00676 32809 ft 415 kts 240°
2026-05-07 16:27 50.97461 5.96641 32975 ft 416 kts 246°
2026-05-07 16:27 50.96462 5.92319 33056 ft 420 kts 255°
2026-05-07 16:28 50.94918 5.83275 33058 ft 430 kts 254°
2026-05-07 16:28 50.93313 5.74100 33059 ft 433 kts 254°
2026-05-07 16:29 50.91668 5.64909 33059 ft 433 kts 253°
2026-05-07 16:29 50.90012 5.55740 33043 ft 433 kts 253°
2026-05-07 16:30 50.88343 5.46554 33027 ft 433 kts 253°
2026-05-07 16:30 50.86688 5.37448 33030 ft 433 kts 253°
2026-05-07 16:31 50.85019 5.28286 33032 ft 433 kts 253°
2026-05-07 16:31 50.83339 5.19132 33021 ft 433 kts 253°
2026-05-07 16:32 50.81656 5.09985 33012 ft 433 kts 253°
2026-05-07 16:32 50.79963 5.00839 32995 ft 433 kts 253°
2026-05-07 16:33 50.78265 4.91702 33002 ft 433 kts 253°
2026-05-07 16:33 50.76553 4.82571 33018 ft 434 kts 253°
2026-05-07 16:34 50.74833 4.73443 33030 ft 434 kts 253°
2026-05-07 16:34 50.73105 4.64329 33040 ft 433 kts 253°
2026-05-07 16:35 50.71373 4.55214 33043 ft 434 kts 253°
2026-05-07 16:35 50.69640 4.46136 33037 ft 434 kts 253°
2026-05-07 16:36 50.67876 4.36932 33026 ft 442 kts 253°
2026-05-07 16:36 50.66074 4.27587 33024 ft 447 kts 253°
2026-05-07 16:37 50.64257 4.18219 33014 ft 447 kts 252°
2026-05-07 16:37 50.62427 4.08852 32999 ft 447 kts 252°
2026-05-07 16:38 50.60605 3.99551 32977 ft 448 kts 252°
2026-05-07 16:38 50.58758 3.90191 32964 ft 448 kts 252°
2026-05-07 16:39 50.56268 3.81248 32966 ft 447 kts 237°
2026-05-07 16:39 50.52460 3.73492 32966 ft 448 kts 232°